Location: Newark
(54.9144°N, 1.3882°W)
Time: 21:28:12
(UTC+00:00)

N. Korean satellite - Visible Passes

Search period start: 08 December 2019 00:00
Search period end: 18 December 2019 00:00
Orbit: 456 x 506 km, 97.2° (Epoch: 07 December)

Date Brightness Start Highest point End Pass type
(mag) Time Alt. Az. Time Alt. Az. Time Alt. Az.
08 Dec 7.5 05:51:03 10° NNE 05:54:33 48° E 05:57:58 10° S visible
08 Dec 7.9 07:25:00 10° NNW 07:27:40 20° WNW 07:30:19 10° WSW visible
08 Dec 6.7 16:32:48 10° SSE 16:36:28 56° ENE 16:40:05 10° N visible
08 Dec 9.7 18:07:36 10° SW 18:10:10 18° W 18:12:44 10° NW visible
09 Dec 8.8 05:25:53 10° NE 05:28:58 27° E 05:32:01 10° SSE visible
09 Dec 7.2 06:59:10 10° N 07:02:25 32° WNW 07:05:36 10° SW visible
09 Dec 8.8 17:41:14 10° SSW 17:44:32 30° W 17:47:49 10° NNW visible
10 Dec 9.7 05:01:06 10° NE 05:03:18 15° E 05:05:29 10° SE visible
10 Dec 6.5 06:33:33 10° N 06:37:05 58° WNW 06:40:32 10° SSW visible
10 Dec 7.5 17:15:21 10° S 17:18:58 53° W 17:22:37 10° NNW visible
11 Dec 6.7 06:08:04 10° NNE 06:11:39 75° ESE 06:15:09 10° S visible
11 Dec 6.6 16:49:48 10° SSE 16:53:30 84° ENE 16:57:13 10° NNW visible
11 Dec 10.0 18:25:54 10° WSW 18:27:26 12° W 18:28:58 10° WNW visible
12 Dec 8.0 05:42:45 10° NNE 05:46:08 39° E 05:49:26 10° SSE visible
12 Dec 7.7 07:16:30 10° N 07:19:22 23° WNW 07:22:11 10° WSW visible
12 Dec 6.9 16:24:34 10° SE 16:28:08 46° ENE 16:31:40 10° N visible
12 Dec 9.4 17:58:54 10° SW 18:01:44 21° W 18:04:34 10° NW visible
13 Dec 9.1 05:17:41 10° NE 05:20:32 22° E 05:23:19 10° SE visible
13 Dec 7.0 06:50:45 10° N 06:54:05 38° WNW 06:57:21 10° SW visible
13 Dec 8.4 17:32:42 10° SSW 17:36:07 35° W 17:39:32 10° NNW visible
14 Dec 9.9 04:53:09 10° ENE 04:54:49 13° E 04:56:28 10° ESE visible
14 Dec 6.4 06:25:10 10° N 06:28:42 71° WNW 06:32:10 10° SSW visible
14 Dec 7.1 17:06:56 10° S 17:10:36 65° WSW 17:14:14 10° NNW visible
15 Dec 7.0 05:59:43 10° NNE 06:03:14 60° E 06:06:41 10° S visible
15 Dec 8.1 07:33:58 10° NNW 07:36:16 17° WNW 07:38:32 10° W visible
15 Dec 6.5 16:41:29 10° SSE 16:45:09 69° ENE 16:48:48 10° N visible
15 Dec 9.9 18:16:54 10° WSW 18:18:58 14° W 18:21:01 10° NW visible
16 Dec 8.3 05:34:29 10° NNE 05:37:41 32° E 05:40:50 10° SSE visible
16 Dec 7.4 07:08:01 10° N 07:11:01 27° WNW 07:13:59 10° WSW visible
16 Dec 7.1 16:16:21 10° SE 16:19:47 38° ENE 16:23:11 10° N visible
16 Dec 9.1 17:50:15 10° SSW 17:53:17 24° W 17:56:19 10° NW visible
17 Dec 9.4 05:09:31 10° NE 05:12:02 18° E 05:14:32 10° SE visible
17 Dec 6.7 06:42:18 10° N 06:45:42 46° WNW 06:49:02 10° SW visible
17 Dec 8.0 17:24:12 10° S 17:27:42 42° W 17:31:11 10° NNW visible
